"Pseudo-MPEC" for N00grmv

Created 2020 Jul 10 15:07:04 UT using Find_Orb

Click here for an explanation of pseudo-MPECs

 
 Astrometry: 
     N00grmv  S2020 06 26Wy@5V\lJnPAstrometrybU=VJaT:$nLaiRsei,vI+9#ruIwDy_y=C51
     N00grmv  s2020 06 26o$XIr7?f='Uot8`JbEfUH9*qjNK)NBxR!J7@jT!E$Us;CX`cgbr4C51
     N00grmv  S2020 06 26lF_ON'MZ'N^sINMJs+ZFOC46-Rctf0tK_I,3)h;hadhijt#6vR40C51
     N00grmv  s2020 06 26BAfu*:an5gT^MAA;\/!Lkjpem`;yt%Bol=,XHAyYMC!h0E'66K`UC51
     N00grmv  S2020 06 26rGJqAO9redacted;kuVE(im#hp]o98^s)ms%S(wRov[bgWs29b%*C51
     N00grmv  s2020 06 26OSik^nAqanvnPto\CE=+fN$Rgf1*qa7q*)/FQ*=lx:`(h/d1T'tVC51
     N00grmv  S2020 06 26uLwa8[2ys]]VF)-*!S\o9d]INHWV,f92=UJyA#clickr%`(%D50EC51
     N00grmv  s2020 06 26Bl:[WQ^+y;=[W4y2_xSbJ2I,lmul=H,x%]]e\SZS/0C;v(m*EqpnC51
     N00grmv  S2020 06 26Wb;Rd-o3mGl*^1@7lsF.^D#ZJKu5sRw4*uSOBuL_-lPyfQa$u8!hC51
     N00grmv  s2020 06 26WM=loiiS_d`4a`d3EqZPJ'1$VOWqs^4?_]cNjHlP]Sj!Ajr!@v!!C51
     N00grmv  S2020 06 27a%W6A4aoMO4f2w:VF``):P^[@V\:,];mr]]aDR4sgT_dnod.Um++C51
     N00grmv  s2020 06 27];s@G0\:Twdoup)H77-V_V@n1hpqs.Q5'q\lSQrb(6W$a;LxR4.8C51
     N00grmv  S2020 06 27jO`VqVMjd$YFOpl]GdyOUVSKZnXn#J^,0n#@AG+y'+)wwfx;e'puC51
     N00grmv  s2020 06 27[f!o[Yc8]!Dmp!3kHrE)#NTnXpY`@.ua/jvB-4%.2L$g:p5fo?DCC51
     N00grmv  S2020 06 27yx72HJriXGPBkLdx:D,pemd5\Q*!u'UsrABBmeT:oP+uo)59ioc.C51
     N00grmv  s2020 06 27bNCD%'T./MPICh1]]aBXV%GIH3WXherea#@\Wtjf!K%M_m8v+Tr=C51
     N00grmv  S2020 06 270w?4E[GVnbWq(9NV]:1.066I^NEi(q`mn%'m;(J/D[N.\1mt2^d5C51
     N00grmv  s2020 06 27B84eu+KByQ#Fl+p!)+[/YCkEE8s1P]FrOZ]Je/l:Id`T5a]@vF?kC51
     N00grmv  S2020 06 27y*rOZUO-*/D/N-UlG%V-3kHKfxqf=c?5G7d[Fmh*39P@IvBNSOaxC51
     N00grmv  s2020 06 27RfdP^*H!#for]H:):oLexplanationEL98VYaSUi`_+87qWAUaiVC51

Station data:
(C51) WISE. Measurers A. Mainzer, E. Wright, J. Bauer, T. Grav, J. Dailey, J.
   Masiero, R. Cutri, R. McMillan, R. Walker.

Orbital elements:  N00grmv
   Perihelion 2020 Jun 26.981120 +/- 3.52 TT = 23:32:48 (JD 2459027.481120)
Epoch 2020 Jun 27.0 TT = JDT 2459027.5   Earth MOID: 0.7451   AutoNEOCP
M   0.00421009 +/- 5.2              (J2000 ecliptic)
n   0.22299221 +/- 0.0193           Peri.  277.64292 +/- 0.9
a   2.69324736 +/- 0.0129           Node   328.48372 +/- 4.6
e   0.3988085 +/- 0.0244            Incl.   20.10550 +/- 1.9
P   4.42                   H 17.0   G  0.15   U 10.1  
q 1.61915737 +/- 0.0273    Q 3.76733736 +/- 0.0277
From 10 observations 2020 June 26-27 (42.4 hr); mean residual 1".28
Residuals in arcseconds: 
200626 C51  .92-  1.2-    200626 C51  1.1-  1.4-    200627 C51  1.0+  .14+    
200626 C51  .39+  2.0+    200627 C51  .53+  2.5-    200627 C51  .51-  .58-    
200626 C51  1.3+  .03-    200627 C51  1.6-  3.1+    
200626 C51  .86+  .65+    200627 C51  .08+  .08-    

Ephemerides (geocentric):
Date (UTC) HH   RA              Dec         delta   r     elong  mag " sig PA
---- -- -- --  -------------   -----------  ------ ------ -----  --- ---- ---
2020 07 10 15  13 18 09.274   -42 12 54.29  1.0391 1.6233 104.3 19.7  272  94
2020 07 10 16  13 18 16.207   -42 12 48.87  1.0393 1.6234 104.3 19.7  274  94
2020 07 10 17  13 18 23.142   -42 12 43.44  1.0395 1.6234 104.3 19.7  275  94
2020 07 10 18  13 18 30.080   -42 12 38.02  1.0397 1.6234 104.3 19.7  277  93
2020 07 10 19  13 18 37.022   -42 12 32.59  1.0399 1.6234 104.3 19.7  278  93
2020 07 10 20  13 18 43.966   -42 12 27.15  1.0402 1.6235 104.2 19.7  280  93
2020 07 10 21  13 18 50.913   -42 12 21.72  1.0404 1.6235 104.2 19.7  282  93
2020 07 10 22  13 18 57.863   -42 12 16.28  1.0406 1.6235 104.2 19.7  283  93
2020 07 10 23  13 19 04.816   -42 12 10.83  1.0408 1.6235 104.2 19.7  285  93
2020 07 11 00  13 19 11.771   -42 12 05.39  1.0410 1.6236 104.2 19.7  286  93
2020 07 11 01  13 19 18.730   -42 11 59.94  1.0413 1.6236 104.2 19.7  288  93
2020 07 11 02  13 19 25.691   -42 11 54.49  1.0415 1.6236 104.2 19.7  289  93
2020 07 11 03  13 19 32.656   -42 11 49.03  1.0417 1.6236 104.1 19.7  291  93
2020 07 11 04  13 19 39.623   -42 11 43.57  1.0419 1.6237 104.1 19.7  293  93
2020 07 11 05  13 19 46.593   -42 11 38.11  1.0422 1.6237 104.1 19.7  294  93
2020 07 11 06  13 19 53.566   -42 11 32.65  1.0424 1.6237 104.1 19.7  296  93
2020 07 11 07  13 20 00.542   -42 11 27.18  1.0426 1.6238 104.1 19.7  297  93
2020 07 11 08  13 20 07.520   -42 11 21.71  1.0428 1.6238 104.1 19.7  299  93
2020 07 11 09  13 20 14.502   -42 11 16.23  1.0431 1.6238 104.1 19.7  301  93
2020 07 11 10  13 20 21.486   -42 11 10.76  1.0433 1.6238 104.0 19.7  302  93
2020 07 11 11  13 20 28.473   -42 11 05.28  1.0435 1.6239 104.0 19.7  304  93
2020 07 11 12  13 20 35.464   -42 10 59.79  1.0437 1.6239 104.0 19.7  306  93
2020 07 11 13  13 20 42.456   -42 10 54.31  1.0439 1.6239 104.0 19.7  307  93
2020 07 11 14  13 20 49.452   -42 10 48.82  1.0442 1.6239 104.0 19.7  309  93
2020 07 11 15  13 20 56.451   -42 10 43.32  1.0444 1.6240 104.0 19.7  310  93
2020 07 11 16  13 21 03.452   -42 10 37.82  1.0446 1.6240 104.0 19.7  312  93
2020 07 11 17  13 21 10.456   -42 10 32.32  1.0448 1.6240 104.0 19.7  314  93
2020 07 11 18  13 21 17.463   -42 10 26.82  1.0451 1.6240 103.9 19.7  315  93
2020 07 11 19  13 21 24.473   -42 10 21.31  1.0453 1.6241 103.9 19.7  317  93
2020 07 11 20  13 21 31.486   -42 10 15.80  1.0455 1.6241 103.9 19.7  319  93
2020 07 11 21  13 21 38.501   -42 10 10.29  1.0457 1.6241 103.9 19.7  320  93
2020 07 11 22  13 21 45.520   -42 10 04.77  1.0460 1.6242 103.9 19.7  322  93
2020 07 11 23  13 21 52.541   -42 09 59.25  1.0462 1.6242 103.9 19.7  324  93
2020 07 12 00  13 21 59.565   -42 09 53.73  1.0464 1.6242 103.9 19.7  325  93
2020 07 12 01  13 22 06.592   -42 09 48.20  1.0466 1.6242 103.8 19.7  327  93
2020 07 12 02  13 22 13.621   -42 09 42.67  1.0469 1.6243 103.8 19.7  329  93
2020 07 12 03  13 22 20.653   -42 09 37.13  1.0471 1.6243 103.8 19.7  330  93
2020 07 12 04  13 22 27.689   -42 09 31.59  1.0473 1.6243 103.8 19.7  332  93
2020 07 12 05  13 22 34.726   -42 09 26.05  1.0475 1.6244 103.8 19.7  334  93
2020 07 12 06  13 22 41.767   -42 09 20.51  1.0478 1.6244 103.8 19.7  336  93
2020 07 12 07  13 22 48.811   -42 09 14.96  1.0480 1.6244 103.8 19.7  337  93
2020 07 12 08  13 22 55.857   -42 09 09.40  1.0482 1.6244 103.8 19.7  339  93
2020 07 12 09  13 23 02.906   -42 09 03.85  1.0484 1.6245 103.7 19.7  341  93
2020 07 12 10  13 23 09.958   -42 08 58.29  1.0487 1.6245 103.7 19.7  342  93
2020 07 12 11  13 23 17.012   -42 08 52.73  1.0489 1.6245 103.7 19.7  344  93
2020 07 12 12  13 23 24.070   -42 08 47.16  1.0491 1.6246 103.7 19.7  346  93
2020 07 12 13  13 23 31.130   -42 08 41.59  1.0493 1.6246 103.7 19.7  348  93
2020 07 12 14  13 23 38.193   -42 08 36.01  1.0496 1.6246 103.7 19.7  349  93